EW4225 Weather Reports


Display with metric or nautical units.
time (UTC)temp
F
wind
direction
speed
MPH
gust
MPH
rain 1hr
in
rain 24hr
in
rain mn
in
humidity
%
barometer
mb
20181015164029 42 346 8.0 15.0 0.00 0.19 0.11 64 1022.6
20181015163529 42 317 7.0 15.0 0.00 0.19 0.11 64 1022.5
20181015163038 42 288 4.0 14.0 0.00 0.19 0.11 65 1022.5
20181015162532 42 355 6.0 14.0 0.00 0.19 0.11 66 1022.5
20181015162026 42 298 8.0 15.0 0.00 0.19 0.11 68 1022.4
20181015161554 41 330 7.0 15.0 0.00 0.19 0.11 69 1022.3
20181015161025 41 299 7.0 16.0 0.00 0.19 0.11 69 1022.5
20181015160525 41 305 4.0 18.0 0.00 0.19 0.11 71 1022.5
20181015160043 40 300 9.0 18.0 0.00 0.19 0.11 70 1022.5
20181015155526 40 306 10.0 17.0 0.00 0.19 0.11 71 1022.6
20181015155025 40 309 6.0 15.0 0.00 0.19 0.11 70 1022.5
20181015154528 40 277 5.0 16.0 0.00 0.19 0.11 71 1022.4
20181015154023 40 315 7.0 16.0 0.00 0.19 0.11 72 1022.4
20181015153524 40 355 8.0 15.0 0.00 0.19 0.11 75 1022.4
20181015153027 39 295 6.0 16.0 0.00 0.19 0.11 75 1022.4
20181015152519 39 339 7.0 16.0 0.00 0.19 0.11 76 1022.4
20181015152021 39 22 7.0 16.0 0.00 0.19 0.11 76 1022.4
20181015151523 38 318 8.0 16.0 0.00 0.19 0.11 77 1022.2
20181015151017 38 318 9.0 18.0 0.00 0.19 0.11 78 1022.1
20181015150520 37 304 9.0 18.0 0.00 0.19 0.11 80 1022.2
20181015150045 37 227 8.0 14.0 0.00 0.19 0.11 82 1022.0
20181015145544 37 316 6.0 14.0 0.00 0.19 0.11 83 1022.0
20181015145016 37 350 5.0 14.0 0.00 0.19 0.11 84 1022.0
20181015144518 37 306 5.0 14.0 0.00 0.19 0.11 85 1022.0
20181015144012 36 285 5.0 16.0 0.00 0.19 0.11 85 1022.0
20181015143510 36 302 8.0 16.0 0.00 0.19 0.11 85 1022.0
20181015143037 37 325 5.0 15.0 0.00 0.19 0.11 86 1021.9
20181015142013 36 317 9.0 20.0 0.00 0.19 0.11 87 1021.8
20181015141512 36 298 8.0 17.0 0.00 0.19 0.11 88 1021.8
20181015141007 36 323 9.0 17.0 0.00 0.19 0.11 88 1021.7
20181015140507 36 325 9.0 16.0 0.00 0.19 0.11 88 1021.7
20181015140006 36 279 6.0 14.0 0.00 0.19 0.11 90 1021.7
20181015135506 36 300 5.0 16.0 0.00 0.19 0.11 91 1021.6
20181015135003 36 340 8.0 16.0 0.00 0.19 0.11 92 1021.6
20181015134502 36 235 6.0 14.0 0.00 0.19 0.11 92 1021.4
20181015134003 35 290 5.0 15.0 0.00 0.19 0.11 93 1021.4
20181015133600 35 280 8.0 15.0 0.00 0.19 0.11 93 1021.3
20181015133214 35 317 7.0 13.0 0.00 0.19 0.11 93 1021.1
20181015132559 34 296 5.0 13.0 0.00 0.19 0.11 93 1021.0
20181015132102 34 283 5.0 13.0 0.00 0.19 0.11 93 1021.0
20181015131622 34 327 5.0 12.0 0.00 0.19 0.11 93 1020.8
20181015131055 34 325 5.0 14.0 0.00 0.19 0.11 93 1020.7
20181015130559 34 301 2.0 14.0 0.00 0.19 0.11 94 1020.5
20181015130128 34 247 3.0 11.0 0.00 0.19 0.11 94 1020.4
20181015125556 34 321 6.0 13.0 0.00 0.19 0.11 94 1020.3
20181015125056 34 311 7.0 13.0 0.00 0.19 0.11 94 1020.3
20181015124724 34 325 6.0 11.0 0.00 0.19 0.11 94 1020.3
20181015124052 34 284 5.0 11.0 0.00 0.19 0.11 94 1020.2
20181015123553 34 333 2.0 10.0 0.00 0.19 0.11 94 1020.0
20181015123157 34 290 3.0 12.0 0.00 0.19 0.11 94 1020.0
20181015122549 34 310 4.0 12.0 0.00 0.19 0.11 94 1020.1
20181015122048 34 297 5.0 12.0 0.00 0.19 0.11 94 1019.9
20181015121042 34 318 5.0 14.0 0.00 0.19 0.11 94 1019.8
20181015120546 34 347 3.0 14.0 0.00 0.19 0.11 94 1019.8
20181015120214 34 292 4.0 14.0 0.00 0.19 0.11 94 1019.7
20181015115543 34 310 4.0 12.0 0.00 0.19 0.11 94 1019.7
20181015115040 34 335 6.0 11.0 0.00 0.19 0.11 94 1019.6
20181015114611 34 315 5.0 14.0 0.00 0.19 0.11 94 1019.6
20181015114041 34 319 8.0 14.0 0.00 0.19 0.11 94 1019.5
20181015113537 34 327 7.0 14.0 0.00 0.19 0.11 94 1019.5
20181015113038 34 323 5.0 14.0 0.00 0.19 0.11 94 1019.4
20181015112537 34 304 6.0 17.0 0.00 0.19 0.11 94 1019.4
20181015112038 34 314 6.0 20.0 0.00 0.19 0.11 95 1019.2
20181015111558 34 307 7.0 20.0 0.00 0.19 0.11 95 1019.0
20181015111035 34 318 5.0 15.0 0.00 0.19 0.11 95 1019.0
20181015110539 34 281 6.0 17.0 0.00 0.19 0.11 95 1019.1
20181015110055 34 317 6.0 17.0 0.00 0.19 0.11 95 1019.0
20181015105533 35 292 6.0 17.0 0.00 0.19 0.11 95 1018.6
20181015105036 35 350 5.0 17.0 0.00 0.19 0.11 95 1018.8
20181015104557 35 286 6.0 12.0 0.00 0.19 0.11 95 1018.6
20181015104031 35 313 7.0 14.0 0.00 0.19 0.11 95 1018.9
20181015103530 35 307 5.0 15.0 0.00 0.19 0.11 95 1018.7
20181015103050 35 319 7.0 15.0 0.00 0.19 0.11 95 1018.7
20181015102531 35 284 5.0 16.0 0.00 0.19 0.11 95 1018.6
20181015102030 35 284 6.0 16.0 0.01 0.19 0.11 95 1018.5
20181015101540 35 296 5.0 14.0 0.01 0.19 0.11 95 1018.0
20181015101027 35 302 6.0 16.0 0.01 0.19 0.11 95 1017.9
20181015100526 35 306 7.0 16.0 0.01 0.19 0.11 95 1018.2
20181015100037 35 296 9.0 16.0 0.01 0.19 0.11 95 1018.1
20181015095524 35 301 7.0 13.0 0.01 0.19 0.11 95 1018.0
20181015095026 35 301 7.0 13.0 0.01 0.19 0.11 95 1018.2
20181015094552 35 326 5.0 13.0 0.01 0.19 0.11 95 1018.1
20181015094023 35 323 7.0 13.0 0.01 0.19 0.11 94 1018.2
20181015093521 35 302 5.0 15.0 0.02 0.19 0.11 95 1018.1
20181015093022 35 296 7.0 18.0 0.02 0.19 0.11 94 1017.9
20181015092520 35 295 7.0 18.0 0.02 0.19 0.11 94 1017.9
20181015092020 35 277 6.0 13.0 0.02 0.18 0.10 94 1017.9
20181015091548 36 312 7.0 12.0 0.02 0.18 0.10 95 1017.9
20181015091020 36 294 8.0 14.0 0.02 0.18 0.10 95 1017.8
20181015090517 36 329 6.0 15.0 0.03 0.18 0.10 94 1017.7
20181015090037 36 360 6.0 16.0 0.03 0.18 0.10 94 1017.8
20181015085515 36 263 6.0 18.0 0.04 0.18 0.10 94 1017.7
20181015085014 36 319 10.0 18.0 0.04 0.18 0.10 94 1017.5
20181015084536 36 289 10.0 18.0 0.04 0.18 0.10 94 1017.5
20181015084012 36 313 8.0 17.0 0.04 0.17 0.09 94 1017.5
20181015083513 37 322 10.0 19.0 0.04 0.17 0.09 94 1017.4
20181015082508 37 302 10.0 18.0 0.05 0.17 0.09 95 1017.3
20181015082006 37 311 7.0 15.0 0.05 0.16 0.08 95 1017.1
20181015081506 37 330 5.0 13.0 0.05 0.16 0.08 95 1017.2
20181015081009 38 304 6.0 13.0 0.05 0.15 0.07 94 1017.1
20181015075505 38 309 7.0 15.0 0.05 0.14 0.06 94 1017.1
20181015075007 38 293 8.0 16.0 0.05 0.14 0.06 94 1017.1
20181015074507 38 334 8.0 16.0 0.05 0.13 0.05 94 1017.0
20181015074104 38 310 7.0 15.0 0.05 0.13 0.05 94 1017.3
20181015073600 38 343 8.0 15.0 0.05 0.13 0.05 94 1017.2
20181015073204 38 338 5.0 15.0 0.04 0.12 0.04 94 1017.3
20181015072559 38 299 6.0 19.0 0.04 0.12 0.04 94 1017.4
20181015072101 38 320 9.0 19.0 0.03 0.11 0.03 93 1017.4
20181015071652 39 313 7.0 15.0 0.03 0.11 0.03 94 1017.3
20181015071059 39 309 7.0 20.0 0.02 0.10 0.02 93 1017.3
20181015070555 39 317 10.0 20.0 0.02 0.10 0.02 93 1017.2
20181015065552 39 338 9.0 19.0 0.01 0.09 0.01 93 1016.8
20181015065052 40 328 9.0 16.0 0.01 0.09 0.01 93 1016.7
20181015064635 40 332 8.0 13.0 0.00 0.08 0.00 93 1016.6
20181015064047 40 302 8.0 13.0 0.00 0.08 0.00 93 1016.5
20181015063549 41 319 6.0 13.0 0.00 0.08 0.00 93 1016.4
20181015063133 41 316 5.0 13.0 0.00 0.08 0.00 93 1016.3
20181015062543 41 145 7.0 14.0 0.00 0.08 0.00 93 1016.1
20181015062043 42 302 6.0 14.0 0.00 0.08 0.00 93 1016.0
20181015061643 42 327 8.0 14.0 0.00 0.08 0.00 93 1016.1
20181015061041 43 307 5.0 13.0 0.00 0.08 0.00 93 1016.0
20181015060537 43 309 4.0 16.0 0.00 0.08 0.00 94 1015.8
20181015060113 44 312 7.0 16.0 0.00 0.08 0.00 94 1015.6
20181015055538 44 323 5.0 11.0 0.00 0.08 0.00 95 1015.8
20181015055034 44 329 5.0 12.0 0.00 0.08 0.00 94 1015.7
20181015054538 44 292 5.0 12.0 0.00 0.08 0.00 94 1015.6
20181015054037 44 306 5.0 11.0 0.00 0.08 0.00 94 1015.5
20181015053530 44 316 4.0 10.0 0.00 0.08 0.00 94 1015.5
20181015053109 44 302 4.0 10.0 0.00 0.08 0.00 94 1015.7
20181015052529 44 296 2.0 9.0 0.00 0.08 0.00 94 1015.9
20181015052028 44 249 4.0 9.0 0.00 0.08 0.00 94 1015.9
20181015051528 44 302 0.0 5.0 0.00 0.08 0.00 94 1015.9
20181015051027 44 286 1.0 7.0 0.00 0.08 0.00 94 1015.8
20181015050526 44 315 3.0 7.0 0.00 0.08 0.00 94 1015.7
20181015050052 44 300 0.0 5.0 0.00 0.08 0.00 94 1015.7
20181015045524 44 271 2.0 8.0 0.00 0.08 0.08 94 1015.7
20181015045024 44 300 1.0 8.0 0.00 0.08 0.08 94 1015.8
20181015044548 44 281 2.0 8.0 0.00 0.08 0.08 93 1015.7
20181015044023 44 304 3.0 8.0 0.00 0.08 0.08 93 1015.7
20181015043527 44 279 2.0 8.0 0.00 0.08 0.08 93 1015.4
20181015043059 44 320 2.0 8.0 0.00 0.08 0.08 93 1015.7
20181015042527 44 298 2.0 8.0 0.00 0.08 0.08 93 1015.7
20181015042024 44 322 2.0 8.0 0.00 0.08 0.08 93 1015.6
20181015041547 44 328 4.0 8.0 0.01 0.08 0.08 92 1015.8
20181015041026 44 290 4.0 7.0 0.01 0.08 0.08 92 1016.0
20181015040522 45 285 2.0 7.0 0.01 0.08 0.08 92 1015.8
20181015040053 45 290 1.0 5.0 0.01 0.08 0.08 92 1015.8
20181015035521 45 318 2.0 5.0 0.02 0.08 0.08 92 1015.9
20181015035023 45 305 1.0 4.0 0.02 0.08 0.08 91 1015.9
20181015034535 45 319 1.0 4.0 0.02 0.08 0.08 91 1015.8
20181015034022 45 302 0.0 2.0 0.03 0.08 0.08 91 1015.8
20181015033524 45 237 0.0 0.0 0.03 0.08 0.08 90 1015.7
20181015033028 45 237 0.0 0.0 0.04 0.08 0.08 90 1015.6
20181015032521 45 237 0.0 0.0 0.04 0.08 0.08 90 1015.6
20181015032020 45 237 0.0 0.0 0.05 0.08 0.08 90 1015.8
20181015031528 45 237 0.0 0.0 0.04 0.07 0.07 90 1015.8
20181015031020 45 237 0.0 0.0 0.05 0.07 0.07 89 1015.7
20181015030521 45 234 0.0 0.0 0.05 0.07 0.07 89 1015.8
20181015030124 46 234 0.0 0.0 0.06 0.07 0.07 89 1016.0
20181015025520 46 234 0.0 0.0 0.06 0.06 0.06 89 1016.0
20181015025019 46 234 0.0 0.0 0.06 0.06 0.06 89 1016.3
20181015024537 46 234 0.0 0.0 0.06 0.06 0.06 89 1016.4
20181015024020 46 298 0.0 0.0 0.05 0.05 0.05 88 1016.5
20181015023519 46 298 0.0 0.0 0.05 0.05 0.05 88 1016.6
20181015023035 46 298 0.0 0.0 0.04 0.04 0.04 88 1016.8
20181015022518 46 298 0.0 0.0 0.04 0.04 0.04 87 1016.8
20181015022019 46 298 0.0 0.0 0.03 0.03 0.03 87 1016.6
20181015021533 46 298 0.0 0.0 0.03 0.03 0.03 87 1016.6
20181015021020 46 348 0.0 0.0 0.02 0.02 0.02 86 1016.6
20181015020519 46 348 0.0 0.0 0.02 0.02 0.02 86 1016.4
20181015020038 47 302 0.0 0.0 0.01 0.01 0.01 85 1016.4
20181015015518 47 302 0.0 0.0 0.00 0.00 0.00 85 1016.6
20181015015020 47 302 0.0 0.0 0.00 0.00 0.00 84 1016.7
20181015014522 47 317 0.0 5.0 0.00 0.00 0.00 84 1016.6
20181015014021 47 323 0.0 5.0 0.00 0.00 0.00 84 1016.5
20181015013518 47 271 0.0 2.0 0.00 0.00 0.00 84 1016.6
20181015013022 47 271 0.0 4.0 0.00 0.00 0.00 84 1016.7
20181015012516 47 259 2.0 4.0 0.00 0.00 0.00 84 1016.9
20181015012016 47 290 2.0 4.0 0.00 0.00 0.00 83 1016.9
20181015011524 47 17 1.0 4.0 0.00 0.00 0.00 83 1016.8
20181015011015 47 317 1.0 5.0 0.00 0.00 0.00 83 1016.9
20181015010515 47 344 1.0 5.0 0.00 0.00 0.00 82 1017.0
20181015010036 47 313 0.0 5.0 0.00 0.00 0.00 82 1016.9
20181015005515 47 324 2.0 5.0 0.00 0.00 0.00 82 1016.8
20181015005018 47 311 2.0 5.0 0.00 0.00 0.00 81 1016.8
20181015004520 47 314 2.0 5.0 0.00 0.00 0.00 82 1016.7
20181015004014 47 292 1.0 4.0 0.00 0.00 0.00 81 1016.4
20181015003515 47 322 1.0 5.0 0.00 0.00 0.00 81 1016.3
20181015003015 47 312 2.0 5.0 0.00 0.00 0.00 81 1016.4
20181015002514 47 302 2.0 6.0 0.00 0.00 0.00 81 1016.3
20181015002017 47 325 3.0 6.0 0.00 0.00 0.00 81 1016.3
20181015001530 47 298 2.0 6.0 0.00 0.00 0.00 81 1016.3
20181015001014 47 294 3.0 6.0 0.00 0.00 0.00 81 1016.2
20181015000513 48 336 3.0 7.0 0.00 0.00 0.00 81 1015.9
20181015000031 48 332 2.0 6.0 0.00 0.00 0.00 81 1015.8
20181014235513 48 298 2.0 6.0 0.00 0.00 0.00 80 1015.8
20181014235018 48 313 3.0 8.0 0.00 0.00 0.00 80 1015.6
20181014234526 48 346 3.0 8.0 0.00 0.00 0.00 80 1015.6
20181014234012 48 9 3.0 8.0 0.00 0.00 0.00 80 1015.6
20181014233512 48 304 3.0 7.0 0.00 0.00 0.00 79 1015.5
20181014233030 48 300 3.0 6.0 0.00 0.00 0.00 79 1015.4
20181014232511 49 315 3.0 8.0 0.00 0.00 0.00 79 1015.6
20181014232016 49 321 2.0 8.0 0.00 0.00 0.00 79 1015.4
20181014231519 49 334 2.0 6.0 0.00 0.00 0.00 78 1015.3
20181014231009 49 329 2.0 5.0 0.00 0.00 0.00 78 1015.3
20181014230508 49 5 1.0 5.0 0.00 0.00 0.00 78 1015.4
20181014230008 49 311 1.0 5.0 0.00 0.00 0.00 77 1015.3
20181014225508 50 313 0.0 0.0 0.00 0.00 0.00 77 1015.1
20181014225007 50 301 0.0 0.0 0.00 0.00 0.00 76 1015.2
20181014224508 50 277 0.0 4.0 0.00 0.00 0.00 77 1015.4
20181014224006 50 294 0.0 8.0 0.00 0.00 0.00 76 1015.5
20181014223507 50 282 2.0 8.0 0.00 0.00 0.00 76 1015.5
20181014223009 51 230 1.0 5.0 0.00 0.00 0.00 77 1015.6
20181014222504 51 273 0.0 5.0 0.00 0.00 0.00 77 1015.5
20181014222007 51 319 0.0 5.0 0.00 0.00 0.00 77 1015.5
20181014221522 51 275 0.0 4.0 0.00 0.00 0.00 77 1015.5
20181014221005 51 316 0.0 6.0 0.00 0.00 0.00 77 1015.4
20181014220504 51 245 1.0 6.0 0.00 0.00 0.00 77 1015.4
20181014220009 51 287 1.0 5.0 0.00 0.00 0.00 76 1015.3
20181014215503 51 291 0.0 5.0 0.00 0.00 0.00 76 1015.2
20181014215003 51 53 0.0 5.0 0.00 0.00 0.00 76 1015.2
20181014214502 51 232 1.0 5.0 0.00 0.00 0.00 76 1015.3
20181014214005 51 213 1.0 5.0 0.00 0.00 0.00 76 1015.2
20181014213504 51 281 0.0 7.0 0.00 0.00 0.00 76 1015.3
20181014213002 51 297 2.0 7.0 0.00 0.00 0.00 76 1015.3
20181014212504 51 281 1.0 5.0 0.00 0.00 0.00 76 1015.2
20181014212004 51 246 0.0 7.0 0.00 0.00 0.00 76 1015.3
20181014211501 51 232 1.0 7.0 0.00 0.00 0.00 75 1015.3
20181014211001 51 292 2.0 8.0 0.00 0.00 0.00 75 1015.4
20181014210502 51 232 3.0 8.0 0.00 0.00 0.00 75 1015.4
20181014210001 51 283 1.0 5.0 0.00 0.00 0.00 75 1015.4
20181014205607 51 227 1.0 7.0 0.00 0.01 0.00 75 1015.6
20181014205100 51 205 3.0 7.0 0.00 0.01 0.00 75 1015.6
20181014204641 51 200 3.0 6.0 0.00 0.01 0.00 75 1015.5
20181014204059 51 257 0.0 5.0 0.00 0.01 0.00 76 1015.4
20181014203559 51 140 2.0 5.0 0.00 0.01 0.00 75 1015.3
20181014203130 51 163 0.0 3.0 0.00 0.01 0.00 75 1015.3
20181014203003 51 104 0.0 4.0 0.00 0.01 0.00 75 1015.2
20181014202558 51 194 0.0 8.0 0.00 0.01 0.00 74 1015.2
20181014202058 51 175 3.0 8.0 0.00 0.01 0.00 75 1015.4
20181014201649 51 200 2.0 8.0 0.00 0.01 0.00 75 1015.3
20181014201100 51 242 3.0 8.0 0.00 0.01 0.00 75 1015.3
20181014200557 51 190 3.0 10.0 0.00 0.01 0.00 75 1015.3
20181014200158 51 219 2.0 7.0 0.00 0.01 0.00 75 1015.3
20181014195558 51 153 1.0 8.0 0.00 0.01 0.00 75 1015.3
20181014195055 51 223 4.0 8.0 0.00 0.01 0.00 76 1015.5
20181014194747 51 242 1.0 8.0 0.00 0.01 0.00 76 1015.6
20181014194056 51 273 2.0 8.0 0.00 0.01 0.00 76 1015.6
20181014193552 51 243 3.0 8.0 0.00 0.01 0.00 76 1015.5
20181014193137 51 227 2.0 7.0 0.00 0.01 0.00 76 1015.5
20181014192554 50 179 0.0 7.0 0.00 0.01 0.00 76 1015.6
20181014192055 50 206 2.0 8.0 0.00 0.01 0.00 77 1015.5
20181014191611 50 192 3.0 8.0 0.00 0.01 0.00 76 1015.5
20181014191049 50 182 3.0 7.0 0.00 0.01 0.00 76 1015.7
20181014190552 50 200 2.0 5.0 0.00 0.01 0.00 77 1015.6
20181014190146 50 192 0.0 4.0 0.00 0.01 0.00 78 1015.7
20181014185547 49 135 1.0 4.0 0.00 0.01 0.00 77 1015.8
20181014185049 49 198 0.0 5.0 0.00 0.01 0.00 77 1015.9
20181014184622 49 165 2.0 7.0 0.00 0.01 0.00 77 1015.9
20181014184048 49 131 4.0 7.0 0.00 0.01 0.00 77 1016.1
20181014183549 49 189 2.0 6.0 0.00 0.01 0.00 78 1016.0
20181014183116 49 246 1.0 6.0 0.00 0.01 0.00 77 1016.1
20181014182546 49 160 3.0 7.0 0.00 0.01 0.00 78 1016.3
20181014182045 49 117 2.0 7.0 0.00 0.01 0.00 78 1016.3
20181014181626 49 176 2.0 5.0 0.00 0.01 0.00 79 1016.3
20181014181047 49 86 2.0 8.0 0.00 0.01 0.00 77 1016.3
20181014180544 49 213 2.0 8.0 0.00 0.01 0.00 77 1016.4
20181014180103 49 147 3.0 7.0 0.00 0.01 0.00 78 1016.4
20181014175544 49 144 1.0 5.0 0.00 0.01 0.00 78 1016.4
20181014175045 49 228 1.0 5.0 0.00 0.01 0.00 77 1016.5
20181014174601 49 202 2.0 5.0 0.00 0.01 0.00 78 1016.6
20181014174041 49 173 3.0 5.0 0.00 0.01 0.00 77 1016.6
20181014173542 49 212 2.0 5.0 0.00 0.01 0.00 77 1016.7
20181014173145 49 188 1.0 7.0 0.00 0.01 0.00 77 1016.9
20181014172547 49 203 2.0 7.0 0.00 0.01 0.00 77 1017.1
20181014172042 49 148 1.0 6.0 0.00 0.01 0.00 76 1017.1
20181014171616 49 215 3.0 8.0 0.00 0.01 0.00 76 1017.1
20181014171043 50 171 2.0 8.0 0.00 0.01 0.00 76 1017.2
20181014170541 50 200 3.0 7.0 0.00 0.01 0.00 75 1017.2
20181014170055 50 215 0.0 7.0 0.00 0.01 0.00 76 1017.2
20181014165543 50 145 2.0 7.0 0.00 0.01 0.00 76 1017.1
20181014165041 50 150 3.0 7.0 0.00 0.01 0.00 75 1017.1
20181014164606 50 181 2.0 4.0 0.00 0.01 0.00 76 1017.0